Flag for Canada Weather past 2 weeks in Moncton, New Brunswick, Canada

Now
39 °F

Broken clouds.


Feels Like: 31 °F
Forecast: N/A
Wind: 15 mph from West

Location: Moncton

Current Time: Mar 31, 2015 at 5:58:52 PM

Latest Report: Mar 31, 2015 at 5:00 PM


Visibility: 15 mi

Pressure: 29.47 "Hg

Humidity: 61%

Dew point: 27 °F

Location of MonctonLocation

Historic Weather in Moncton — Graph

°F

Moncton temperature yesterday

Maximum temperature yesterday: 39 °F (at 1:00 PM)
Minimum temperature yesterday: 21 °F (at 4:00 AM)
Average temperature yesterday: 31 °F

Past Weeks' High & Low Weather Summary

 TemperatureHumidityPressure
High45 °F (Mar 26, 2:00 PM)100% (Mar 27, 12:00 AM)30.31 "Hg (Mar 27, 12:00 AM)
Low0 °F (Mar 17, 6:00 AM)27% (Mar 29, 2:00 PM)29.21 "Hg (Mar 18, 4:00 AM)
Average26 °F67%29.78 "Hg
* Reported Mar 16 4:00 PM — Mar 31 4:00 PM, Moncton, Weather by CustomWeather, © 2015

Note: Actual official high and low records may vary slightly from our data, if they occured in-between our weather recording intervals... More about our weather records

Advertising

Moncton weather history for previous 24 hours

 ConditionsComfort  
Time TempWeatherWind HumidityBarometerVisibility
4:00 PM
Tue, Mar 31
39 °FBroken clouds.14 mph65%29.46 "Hg15 mi
3:00 PM37 °FPartly sunny.15 mph70%29.46 "Hg15 mi
2:00 PM39 °FPartly sunny.10 mph65%29.46 "Hg15 mi
1:00 PM37 °FPartly sunny.13 mph70%29.47 "Hg15 mi
12:00 PM37 °FPartly sunny.7 mph70%29.47 "Hg15 mi
11:00 AM36 °FMostly cloudy.5 mph81%29.49 "Hg15 mi
10:00 AM34 °FOvercast.No wind87%29.49 "Hg15 mi
9:00 AM32 °FMostly cloudy.5 mph87%29.49 "Hg15 mi
8:00 AM32 °FMostly cloudy.6 mph87%29.51 "Hg15 mi
7:00 AM30 °FSnow flurries. Overcast.8 mph93%29.52 "Hg12 mi
6:00 AM30 °FSnow flurries. Overcast.10 mph93%29.52 "Hg12 mi
5:00 AM30 °FSnow flurries. Overcast.8 mph93%29.54 "Hg6 mi
4:00 AM30 °FSnow flurries. Mostly cloudy.9 mph86%29.56 "Hg15 mi
3:00 AM30 °FSnow flurries. Mostly cloudy.8 mph80%29.58 "Hg15 mi
2:00 AM30 °FSnow flurries. Mostly cloudy.10 mph75%29.60 "Hg12 mi
1:00 AM32 °FSnow flurries. Overcast.15 mph69%29.63 "Hg12 mi
12:57 AM32 °FSnow flurries. Overcast.13 mph69%29.63 "Hg12 mi
12:00 AM32 °FOvercast.9 mph64%29.66 "Hg15 mi
11:00 PM
Mon, Mar 30
32 °FOvercast.8 mph69%29.69 "Hg15 mi
10:00 PM34 °FOvercast.13 mph65%29.70 "Hg15 mi
9:00 PM34 °FOvercast.10 mph60%29.72 "Hg15 mi
8:00 PM36 °FOvercast.10 mph52%29.73 "Hg15 mi
7:00 PM37 °FOvercast.17 mph48%29.75 "Hg15 mi
6:00 PM37 °FPartly sunny.20 mph48%29.76 "Hg15 mi
5:00 PM37 °FOvercast.17 mph45%29.78 "Hg15 mi
Weather by CustomWeather, © 2015

See weather overviewHow to use our weather pages